Regional Weather Roundup
Issued by NWS Memphis, TN

Home | Current Version | Previous Version | Text Only | Print | Product List | Glossary On
Versions: 1 2 3 4 5 6 7 8 9 10 11 12 13 14 15 16 17 18 19 20 21 22 23 24 25 26 27 28 29 30 31 32 33 34 35 36 37 38 39 40 41 42 43 44 45 46 47 48 49 50
000
ASUS44 KMEG 222310
RWRMEG
MEMPHIS CWA HOURLY WEATHER ROUNDUP
NATIONAL WEATHER SERVICE MEMPHIS TN
600 PM CDT FRI MAY 22 2015

...WEST TENNESSEE...

CITY           SKY/WX    TMP DP  RH WIND       PRES   REMARKS
MEMPHIS INTL   PTSUNNY   75  45  34 E9        30.23S
NWS MEMPHIS      N/A     71 N/A N/A MISG        N/A
JACKSON        CLOUDY    73  51  46 CALM      30.23F
LEXINGTON      SUNNY     70  46  43 CALM      30.24S
DYERSBURG      CLOUDY    72  39  30 E6        30.25F
PARIS          SUNNY     70  45  40 CALM      30.26S


...EASTERN ARKANSAS...

CITY           SKY/WX    TMP DP  RH WIND       PRES   REMARKS
JONESBORO      PTSUNNY   67  49  52 E8        30.24F
WEST MEMPHIS   MOSUNNY   73  50  44 NE10      30.21F
BATESVILLE     CLOUDY    66  50  55 E5        30.24S
NEWPORT        PTSUNNY   69  50  50 E8        30.24F
WALNUT RIDGE   CLOUDY    70  46  43 E6        30.24S
BLYTHEVILLE    PTSUNNY   71  49  45 E5        30.24F
STUTTGART      CLOUDY    70  52  52 NE8       30.22F
PINE BLUFF     PTSUNNY   72  52  49 E7        30.20F
MONTICELLO     SUNNY     74  51  44 E9        30.19F


...NORTH MISSISSIPPI...

CITY           SKY/WX    TMP DP  RH WIND       PRES   REMARKS
TUPELO         SUNNY     75  43  31 E7        30.21S
OXFORD         SUNNY     72  48  43 NE7       30.24R
OLIVE BRANCH   PTSUNNY   72  48  43 NE8       30.24R
TUNICA         SUNNY     72  48  43 E9        30.22F
CLARKSDALE     SUNNY     73  52  46 CALM      30.22S
CORINTH        SUNNY     73  48  40 NE6       30.22S
GREENWOOD      SUNNY     77  50  38 NE9       30.20R
COLUMBUS       SUNNY     80  49  33 VRB2      30.20R
STARKVILLE     FAIR      73  52  46 NE3       30.20S
GOLDEN TRIANGL SUNNY     75  52  43 NE6       30.19F


...SOUTHEAST MISSOURI...

CITY           SKY/WX    TMP DP  RH WIND       PRES   REMARKS
WEST PLAINS    CLOUDY    65  49  56 E6        30.26F
POPLAR BLUFF   CLOUDY    69  48  47 VRB6      30.24F
CAPE GIRARDEAU PTSUNNY   69  52  54 CALM      30.25S


...NORTHWEST ALABAMA...

CITY           SKY/WX    TMP DP  RH WIND       PRES   REMARKS
MUSCLE SHOALS  SUNNY     75  46  35 VRB3      30.23S


...MIDDLE TENNESSEE...

CITY           SKY/WX    TMP DP  RH WIND       PRES   REMARKS
NASHVILLE      MOSUNNY   74  43  32 E5        30.25F
CLARKSVILLE    SUNNY     74  46  36 CALM      30.25S
COLUMBIA       SUNNY     73  45  35 NE7       30.23R


...WESTERN KENTUCKY...

CITY           SKY/WX    TMP DP  RH WIND       PRES   REMARKS
PADUCAH        MOSUNNY   74  45  35 CALM      30.24F
FORT CAMPBELL  SUNNY     72  47  41 NE5       30.25S


...CENTRAL ARKANSAS...

CITY           SKY/WX    TMP DP  RH WIND       PRES   REMARKS
LITTLE ROCK    CLOUDY    69  48  47 E8        30.21F


SKY/WX REPORTED AS FAIR MEANS FEW OR NO CLOUDS BELOW
12 THOUSAND FEET.




USA.gov is the U.S. government's official web portal to all federal, state and local government web resources and services.